Date String (YYYY-MM-DD hh:mm:ss) UTC,Instrument flags,Ambient pressure (hPa),Sample flow (lpm),Bypass flow (lpm),Sample temperature (°C),Ambient temperature (°C),ASC tube jacket temperature (°C),LED temperature (°C),Box temperature (°C),Sample RH (%),Span deviation,Mass concentration (μg/m³),Mass concentration (μg/m³),Mass concentration (μg/m³)
DateTimeUTC,F1_M11,P_M11,Q1_M11,Q2_M11,T1_M11,T2_M11,T3_M11,T4_M11,T5_M11,U1_M11,ZSPAN_M11,X2_M11,X0_M11,X1_M11
2021-09-02 10:00:00,,0824.5,5.00,0.00,30.0,29.1,00.0,39.0,31.8,31.2,0001.5,0013.17,0018.33,0012.44
2021-09-02 10:01:00,,0824.7,4.99,0.00,29.9,27.4,00.0,38.9,31.4,31.4,0001.5,0013.18,0018.55,0012.45
2021-09-02 10:02:00,,0824.6,5.00,0.00,29.8,26.4,00.0,38.9,31.1,31.6,0001.3,0013.16,0018.57,0012.43
2021-09-02 10:03:00,,0824.9,5.01,0.00,29.7,26.5,00.0,38.9,31.1,31.7,0001.2,0013.13,0018.56,0012.43
2021-09-02 10:04:00,,0824.5,5.00,0.00,29.6,26.9,00.0,38.8,31.1,31.8,0001.2,0013.09,0018.18,0012.42
2021-09-02 10:05:00,,0824.6,5.00,0.00,29.6,27.3,00.0,38.8,31.2,31.9,0001.3,0013.08,0017.51,0012.41
2021-09-02 10:06:00,,0824.6,5.01,0.00,29.6,27.6,00.0,38.8,31.2,31.9,0001.4,0013.09,0017.57,0012.39
2021-09-02 10:07:00,,0824.7,4.99,0.00,29.6,27.9,00.0,38.8,31.3,32.0,0001.5,0013.08,0017.56,0012.40
2021-09-02 10:08:00,,0824.7,4.99,0.00,29.6,28.1,00.0,38.8,31.3,32.1,0001.8,0013.10,0017.65,0012.39
2021-09-02 10:09:00,,0824.7,5.01,0.00,29.6,28.3,00.0,38.8,31.4,32.0,0001.7,0013.10,0017.62,0012.38
2021-09-02 10:10:00,,0824.6,4.99,0.00,29.7,28.5,00.0,38.8,31.4,32.0,0001.6,0013.15,0017.36,0012.39
2021-09-02 10:11:00,,0824.6,5.02,0.00,29.7,28.6,00.0,38.8,31.5,31.9,0001.5,0013.16,0017.39,0012.40
2021-09-02 10:12:00,,0824.8,4.99,0.00,29.7,28.7,00.0,38.8,31.5,31.8,0001.5,0013.20,0017.07,0012.43
2021-09-02 10:13:00,,0824.7,4.99,0.00,29.8,28.8,00.0,38.8,31.5,31.8,0001.8,0013.22,0017.09,0012.44
2021-09-02 10:14:00,,0824.8,5.01,0.00,29.8,28.8,00.0,38.8,31.6,31.8,0001.8,0013.23,0017.38,0012.43
2021-09-02 10:15:00,,0824.8,4.99,0.00,29.8,28.9,00.0,38.8,31.6,31.7,0001.7,0013.28,0017.80,0012.47
2021-09-02 10:16:00,,0824.8,5.01,0.00,29.8,29.0,00.0,38.9,31.7,32.0,0001.7,0013.28,0017.76,0012.50
2021-09-02 10:17:00,,0824.8,4.99,0.00,29.9,29.0,00.0,38.9,31.7,31.8,0001.8,0013.29,0017.66,0012.55
2021-09-02 10:18:00,,0824.8,5.01,0.00,29.9,29.0,00.0,38.9,31.7,31.7,0001.9,0013.33,0017.66,0012.56
2021-09-02 10:19:00,,0824.8,5.01,0.00,29.9,29.1,00.0,38.9,31.7,31.7,0001.8,0013.37,0017.65,0012.60
2021-09-02 10:20:00,,0824.8,4.99,0.00,30.0,29.1,00.0,38.9,31.8,31.6,0001.8,0013.39,0017.71,0012.61
2021-09-02 10:21:00,,0824.8,5.02,0.00,30.0,29.2,00.0,39.0,31.8,31.6,0001.9,0013.40,0017.85,0012.63
2021-09-02 10:22:00,,0824.8,4.99,0.00,30.0,29.2,00.0,39.0,31.8,31.6,0001.8,0013.40,0017.85,0012.64
2021-09-02 10:23:00,,0824.8,4.99,0.00,30.0,29.2,00.0,39.0,31.9,31.5,0001.9,0013.41,0017.79,0012.65
2021-09-02 10:24:00,,0824.8,5.00,0.00,30.0,28.4,00.0,39.0,31.6,31.5,0001.8,0013.44,0017.81,0012.68
2021-09-02 10:25:00,,0824.7,5.00,0.00,29.9,26.8,00.0,39.0,31.2,31.8,0001.8,0013.50,0017.68,0012.73
2021-09-02 10:26:00,,0824.7,5.00,0.00,29.8,26.4,00.0,39.0,31.1,32.1,0001.9,0013.50,0017.58,0012.73
2021-09-02 10:27:00,,0824.7,5.00,0.00,29.7,26.8,00.0,38.9,31.1,32.2,0001.8,0013.53,0017.73,0012.75
2021-09-02 10:28:00,,0824.7,5.00,0.00,29.6,27.2,00.0,38.9,31.2,32.2,0001.5,0013.55,0017.82,0012.76
2021-09-02 10:29:00,,0824.8,5.00,0.00,29.6,27.5,00.0,38.9,31.2,32.2,0001.4,0013.58,0017.96,0012.78
2021-09-02 10:30:00,,0824.7,5.00,0.00,29.6,27.8,00.0,38.8,31.3,32.2,0001.4,0013.58,0018.01,0012.79
2021-09-02 10:31:00,,0824.7,5.01,0.00,29.7,28.0,00.0,38.8,31.3,32.1,0001.5,0013.59,0018.29,0012.80
2021-09-02 10:32:00,,0824.7,4.99,0.00,29.7,28.2,00.0,38.8,31.4,32.1,0001.5,0013.55,0018.11,0012.79
2021-09-02 10:33:00,,0824.6,5.01,0.00,29.7,28.4,00.0,38.8,31.4,32.0,0001.6,0013.52,0017.95,0012.78
2021-09-02 10:34:00,,0824.7,4.98,0.00,29.7,28.5,00.0,38.8,31.5,32.0,0001.9,0013.51,0017.97,0012.78
2021-09-02 10:35:00,,0824.7,5.01,0.00,29.8,28.6,00.0,38.8,31.5,31.9,0001.7,0013.50,0018.00,0012.77
2021-09-02 10:36:00,,0824.7,5.00,0.00,29.8,28.7,00.0,38.8,31.5,31.8,0001.7,0013.46,0018.06,0012.76
2021-09-02 10:37:00,,0824.7,5.00,0.00,29.8,28.8,00.0,38.9,31.6,31.8,0001.7,0013.47,0018.18,0012.75
2021-09-02 10:38:00,,0824.8,4.99,0.00,29.8,28.9,00.0,38.9,31.6,31.7,0001.8,0013.46,0017.90,0012.75
2021-09-02 10:39:00,,0824.8,5.01,0.00,29.9,28.9,00.0,38.9,31.6,31.6,0001.9,0013.46,0017.87,0012.75
2021-09-02 10:40:00,,0824.8,4.99,0.00,29.9,29.0,00.0,38.9,31.7,31.6,0001.8,0013.42,0017.73,0012.74
2021-09-02 10:41:00,,0824.8,5.01,0.00,29.9,29.0,00.0,38.9,31.7,31.5,0001.8,0013.33,0017.58,0012.70
2021-09-02 10:42:00,,0824.8,4.99,0.00,30.0,29.1,00.0,38.9,31.7,31.4,0001.7,0013.30,0017.63,0012.69
2021-09-02 10:43:00,,0824.8,5.01,0.00,30.0,29.1,00.0,39.0,31.8,31.4,0001.7,0013.32,0018.35,0012.68
2021-09-02 10:44:00,,0824.8,5.00,0.00,30.0,29.2,00.0,39.0,31.8,31.3,0001.6,0013.32,0018.56,0012.67
2021-09-02 10:45:00,,0824.8,4.99,0.00,30.0,29.2,00.0,39.0,31.9,31.2,0001.5,0013.27,0018.50,0012.64
2021-09-02 10:46:00,,0824.8,5.00,0.00,30.1,28.9,00.0,39.0,31.8,31.1,0001.7,0013.23,0018.38,0012.60
2021-09-02 10:47:00,,0824.8,5.01,0.00,29.9,27.2,00.0,39.0,31.3,31.2,0001.7,0013.23,0018.33,0012.56
2021-09-02 10:48:00,,0824.8,4.99,0.00,29.8,26.3,00.0,39.0,31.1,31.3,0001.5,0013.17,0018.02,0012.50
2021-09-02 10:49:00,,0824.7,5.00,0.00,29.7,26.5,00.0,38.9,31.1,31.4,0001.5,0013.11,0017.92,0012.46
2021-09-02 10:50:00,,0824.7,5.00,0.00,29.6,26.9,00.0,38.9,31.2,31.6,0001.5,0013.06,0017.90,0012.40
2021-09-02 10:51:00,,0824.8,5.00,0.00,29.6,27.3,00.0,38.9,31.2,31.8,0001.5,0013.06,0017.95,0012.35
2021-09-02 10:52:00,,0824.7,5.01,0.00,29.6,27.6,00.0,38.8,31.3,31.7,0001.4,0013.04,0017.94,0012.32
2021-09-02 10:53:00,,0824.7,4.99,0.00,29.6,27.9,00.0,38.8,31.3,31.7,0001.4,0013.01,0017.56,0012.29
2021-09-02 10:54:00,,0824.7,5.01,0.00,29.6,28.1,00.0,38.8,31.4,31.7,0001.4,0012.95,0016.85,0012.26
2021-09-02 10:55:00,,0824.8,4.99,0.00,29.7,28.3,00.0,38.8,31.4,31.6,0001.5,0012.92,0017.12,0012.23
2021-09-02 10:56:00,,0824.8,5.00,0.00,29.7,28.4,00.0,38.8,31.5,31.6,0001.4,0012.94,0017.51,0012.21
2021-09-02 10:57:00,,0824.8,5.00,0.00,29.7,28.5,00.0,38.8,31.5,31.5,0001.0,0012.95,0017.83,0012.18
2021-09-02 10:58:00,,0824.8,5.00,0.00,29.7,28.6,00.0,38.8,31.5,31.5,0001.1,0012.91,0017.76,0012.17
2021-09-02 10:59:00,,0824.8,5.00,0.00,29.8,28.7,00.0,38.8,31.5,31.4,0001.2,0012.94,0017.86,0012.19
